Weather History for EBCV - February, 2013

Change the Weather History Date:

Thursday, February 14, 2013

  Actual Average Record
Temperature  
Mean Temperature 30 °F -  
Max Temperature 34 °F 45 °F 53 °F (2014)
Min Temperature 27 °F 37 °F 19 °F (1999)
Degree Days  
Heating Degree Days 34    
Moisture  
Dew Point 28 °F    
Average Humidity 85    
Maximum Humidity 100    
Minimum Humidity 52    
Precipitation  
Precipitation 0.08 in - - ()
Sea Level Pressure  
Sea Level Pressure 29.97 in    
Wind  
Wind Speed 12 mph ()    
Max Wind Speed 20 mph    
Max Gust Speed -    
Visibility 3.6 miles    
Events Rain , Snow    
Averages and records for this station are not official NWS values.
T = Trace of Precipitation, MM = Missing Value Source: Averaged Metar Reports

Daily Weather History Graph

Daily Weather History Graph

Search for Another Location

Airport or City:

Trip Planner

Search our weather history database for the weather conditions in past years. The results will help you decide how hot, cold, wet, or windy it might be!

Date:

Astronomy

Feb. 14, 2013 Rise Set
Actual Time 7:58 AM CET 6:00 PM CET
Civil Twilight 7:24 AM CET 6:34 PM CET
Nautical Twilight 6:45 AM CET 7:12 PM CET
Astronomical Twilight 6:08 AM CET 7:50 PM CET
Moon 9:17 AM CET (2/14) 11:25 PM CET (2/14)
Length of Visible Light 11h 09m
Length of Day
10h 02m
Waxing Crescent, 19% of the Moon is Illuminated
Feb 14
Waxing Crescent
Feb 17
First Quarter
Feb 25
Full
Mar 4
Last Quarter
Mar 11
New

Hourly Weather History & Observations

Time (CET) Temp. Windchill Dew Point Humidity Pressure Visibility Wind Dir Wind Speed Gust Speed Precip Events Conditions
12:25 AM 28.4 °F 20.4 °F 19.4 °F 69% 30.21 in 5.6 mi South 8.1 mph - N/A   Overcast
1:00 AM 28 °F - 19 °F 59% 30.25 in 5 mi South 8.9 mph - -   Mostly Cloudy
1:25 AM 28.4 °F 19.7 °F 19.4 °F 69% 30.21 in 5.0 mi SSE 9.2 mph - N/A   Mostly Cloudy
2:25 AM 28.4 °F 19.1 °F 19.4 °F 69% 30.18 in 5.0 mi South 10.4 mph - N/A   Scattered Clouds
3:25 AM 28.4 °F 18.0 °F 19.4 °F 69% 30.15 in 5.6 mi South 12.7 mph - N/A   Mostly Cloudy
4:00 AM 29 °F - 19 °F 54% 30.17 in 6 mi South 15.7 mph - -   Overcast
4:25 AM 30.2 °F 18.9 °F 19.4 °F 64% 30.12 in 6.2 mi South 16.1 mph - N/A   Overcast
5:25 AM 30.2 °F 18.9 °F 19.4 °F 64% 30.09 in 6.2 mi South 16.1 mph - N/A   Mostly Cloudy
7:00 AM 30 °F - 19 °F 52% 30.10 in 6 mi South 20.1 mph - -   Mostly Cloudy
7:25 AM 30.2 °F 17.8 °F 19.4 °F 64% 30.06 in 6.2 mi South 19.6 mph - N/A   Mostly Cloudy
8:25 AM 30.2 °F 17.8 °F 19.4 °F 64% 30.04 in 5.6 mi South 19.6 mph - N/A   Mostly Cloudy
9:25 AM 32.0 °F 20.8 °F 21.2 °F 64% 30.01 in 6.2 mi South 17.3 mph - N/A   Mostly Cloudy
9:35 AM 32.0 °F 20.1 °F 21.2 °F 64% 30.01 in 5.6 mi South 19.6 mph - N/A Rain Rain
10:00 AM 31 °F - 22 °F 59% 30.02 in 5 mi South 20.1 mph - -   Light Freezing Rain
10:22 AM 30.2 °F 17.8 °F 24.8 °F 80% 30.01 in - South 19.6 mph - N/A Rain Light Freezing Rain
10:25 AM 30.2 °F 17.8 °F 24.8 °F 80% 30.01 in - South 19.6 mph - N/A Rain Light Freezing Rain
10:34 AM 30.2 °F 18.1 °F 24.8 °F 80% 29.98 in 3.1 mi South 18.4 mph - N/A Rain Light Freezing Rain
11:25 AM 32.0 °F 20.5 °F 24.8 °F 75% 29.98 in 5.0 mi South 18.4 mph - N/A Rain Rain
12:06 PM 32.0 °F 20.8 °F 26.6 °F 80% 29.95 in 3.7 mi South 17.3 mph - N/A   Overcast
12:12 PM 32.0 °F 21.2 °F 26.6 °F 80% 29.95 in 4.3 mi South 16.1 mph - N/A   Overcast
12:18 PM 32.0 °F 21.6 °F 26.6 °F 80% 29.95 in 4.3 mi South 15.0 mph - N/A   Overcast
12:25 PM 32.0 °F 21.6 °F 26.6 °F 80% 29.95 in 4.3 mi South 15.0 mph - N/A   Overcast
12:30 PM 32.0 °F 20.8 °F 26.6 °F 80% 29.95 in 4.3 mi South 17.3 mph - N/A Rain Rain
12:36 PM 32.0 °F 20.8 °F 28.4 °F 87% 29.95 in 3.7 mi South 17.3 mph - N/A   Drizzle
12:54 PM 32.0 °F 20.8 °F 28.4 °F 87% 29.92 in - South 17.3 mph - N/A Snow Light Snow
1:00 PM 32 °F - 28 °F 80% 29.95 in 3 mi South 17.9 mph - - Rain Light Freezing Drizzle
1:03 PM 32.0 °F 21.2 °F 28.4 °F 87% 29.92 in - South 16.1 mph - N/A Snow Light Snow Grains
1:09 PM 32.0 °F 21.6 °F 28.4 °F 87% 29.92 in - South 15.0 mph - N/A   Drizzle
1:17 PM 32.0 °F 22.1 °F 30.2 °F 93% 29.92 in - South 13.8 mph - N/A Rain , Snow Rain
1:25 PM 32.0 °F 22.5 °F 30.2 °F 93% 29.92 in - South 12.7 mph - N/A Rain , Snow Rain
1:29 PM 32.0 °F 23.0 °F 30.2 °F 93% 29.92 in - South 11.5 mph - N/A Rain , Snow Rain
2:05 PM 32.0 °F 23.0 °F 30.2 °F 93% 29.92 in - South 11.5 mph - N/A Rain Rain
2:11 PM 32.0 °F 23.6 °F 30.2 °F 93% 29.92 in 2.5 mi South 10.4 mph - N/A Rain Rain
2:25 PM 32.0 °F 23.6 °F 30.2 °F 93% 29.92 in - South 10.4 mph - N/A Rain Rain
2:28 PM 32.0 °F 23.0 °F 30.2 °F 93% 29.92 in - South 11.5 mph - N/A   Drizzle
2:43 PM 32.0 °F 23.6 °F 30.2 °F 93% 29.89 in - South 10.4 mph - N/A Rain Rain
2:53 PM 32.0 °F 24.2 °F 30.2 °F 93% 29.89 in - South 9.2 mph - N/A Rain Rain
2:59 PM 32.0 °F 24.2 °F 30.2 °F 93% 29.89 in - South 9.2 mph - N/A   Drizzle
3:12 PM 32.0 °F 24.2 °F 30.2 °F 93% 29.89 in - South 9.2 mph - N/A   Drizzle
3:25 PM 32.0 °F 24.8 °F 30.2 °F 93% 29.89 in - South 8.1 mph - N/A   Mostly Cloudy
3:28 PM 32.0 °F 24.2 °F 30.2 °F 93% 29.89 in 1.6 mi South 9.2 mph - N/A Rain Rain
3:34 PM 32.0 °F 24.8 °F 30.2 °F 93% 29.89 in 1.5 mi South 8.1 mph - N/A Rain , Snow Light Rain
3:53 PM 32.0 °F 26.4 °F 32.0 °F 100% 29.92 in 1.7 mi South 5.8 mph - N/A Rain , Snow Rain
4:14 PM 32.0 °F 26.4 °F 32.0 °F 100% 29.92 in 1.5 mi South 5.8 mph - N/A Rain , Snow Rain
4:25 PM 32.0 °F 26.4 °F 32.0 °F 100% 29.92 in - South 5.8 mph - N/A Rain , Snow Light Rain Showers
4:28 PM 32.0 °F 25.6 °F 32.0 °F 100% 29.92 in - South 6.9 mph - N/A Rain , Snow Light Rain
4:36 PM 32.0 °F 26.4 °F 32.0 °F 100% 29.92 in - South 5.8 mph - N/A   Overcast
4:46 PM 33.8 °F 27.7 °F 32.0 °F 93% 29.92 in 2.8 mi South 6.9 mph - N/A Rain Light Rain Showers
5:25 PM 33.8 °F 27.0 °F 32.0 °F 93% 29.89 in 3.1 mi South 8.1 mph - N/A Rain Light Rain Showers
6:25 PM 33.8 °F 27.7 °F 32.0 °F 93% 29.92 in 3.1 mi South 6.9 mph - N/A   Mostly Cloudy
7:00 PM 33 °F - 32 °F 94% 29.93 in 3 mi South 8.9 mph - -   Clear
7:25 PM 33.8 °F 28.6 °F 32.0 °F 93% 29.92 in 3.1 mi South 5.8 mph - N/A   Overcast
7:51 PM 33.8 °F 28.6 °F 32.0 °F 93% 29.92 in 3.7 mi South 5.8 mph - N/A   Mostly Cloudy
9:25 PM 33.8 °F 27.7 °F 33.8 °F 100% 29.92 in 1.9 mi South 6.9 mph - N/A   Overcast
9:47 PM 33.8 °F 28.6 °F 33.8 °F 100% 29.95 in 1.4 mi South 5.8 mph - N/A   Mostly Cloudy
10:00 PM 34 °F - 33 °F 97% 29.96 in 1 mi South 4.5 mph - -   Mist
10:17 PM 33.8 °F 27.0 °F 33.8 °F 100% 29.95 in 1.6 mi South 8.1 mph - N/A   Overcast
10:23 PM 33.8 °F 27.0 °F 33.8 °F 100% 29.92 in 1.6 mi South 8.1 mph - N/A   Mostly Cloudy
10:25 PM 33.8 °F 27.0 °F 33.8 °F 100% 29.92 in 1.4 mi South 8.1 mph - N/A Rain Light Rain
10:37 PM 33.8 °F 27.0 °F 33.8 °F 100% 29.95 in 1.2 mi South 8.1 mph - N/A Rain Light Rain
10:57 PM 33.8 °F 29.6 °F 33.8 °F 100% 29.95 in 1.2 mi SSW 4.6 mph - N/A Rain Rain
11:25 PM 33.8 °F 28.6 °F 33.8 °F 100% 29.95 in 1.6 mi South 5.8 mph - N/A   Light Drizzle
11:52 PM 33.8 °F 27.7 °F 33.8 °F 100% 29.95 in 1.6 mi SSW 6.9 mph - N/A Rain Light Rain Showers